Home   Weather   61°13'N, 149°50'W   Past weeks
Flag for USA

Past Weather in 61°13'N, 149°50'W, USA — Yesterday and Last 2 Weeks

Now
51 °F

Overcast.


Feels Like: 50 °F
Forecast: 58 / 46 °F
Wind: 5 mph from South

Location: Lake Hood Seaplane

Current Time: May 24, 2019 at 1:14:51 am

Latest Report: May 23, 2019 at 11:53 pm


Visibility: 10 mi

Pressure: 30.11 "Hg

Humidity: 63%

Dew Point: 39 °F

Location of 61°13'N, 149°50'WLocation

Past Weather in 61°13'N, 149°50'W — Graph

°F

61°13'N, 149°50'W Temperature Yesterday

Maximum temperature yesterday: 57 °F (at 3:53 pm)
Minimum temperature yesterday: 48 °F (at 5:53 am)
Average temperature yesterday: 52 °F

High & Low Weather Summary for the Past Weeks

 TemperatureHumidityPressure
High64 °F (May 14, 5:53 pm)93% (May 9, 2:53 am)30.23 "Hg (May 9, 2:53 am)
Low39 °F (May 13, 5:53 am)26% (May 14, 6:53 pm)29.48 "Hg (May 10, 8:53 am)
Average49 °F63%29.86 "Hg
* Reported May 8 11:53 pm — May 23 11:53 pm, 61°13'N, 149°50'W. Weather by CustomWeather, © 2019

Note: Actual official high and low records may vary slightly from our data, if they occured in-between our weather recording intervals... More about our weather records

Advertising

61°13'N, 149°50'W Weather History for the Previous 24 Hours

Scroll right to see more
 ConditionsComfort  
Time TempWeatherWind HumidityBarometerVisibility
11:53 pm
Thu, May 23
51 °FOvercast.5 mph63%30.11 "Hg10 mi
10:53 pm52 °FPassing clouds.No wind59%30.10 "Hg10 mi
9:53 pm54 °FOvercast.3 mph59%30.08 "Hg10 mi
8:53 pm54 °FOvercast.3 mph62%30.07 "Hg10 mi
7:53 pm54 °FOvercast.7 mph62%30.06 "Hg10 mi
6:53 pm54 °FOvercast.8 mph59%30.05 "Hg10 mi
5:53 pm55 °FOvercast.7 mph57%30.04 "Hg10 mi
4:53 pm56 °FOvercast.7 mph51%30.04 "Hg10 mi
3:53 pm57 °FOvercast.7 mph51%30.04 "Hg10 mi
2:53 pm55 °FOvercast.5 mph57%30.03 "Hg10 mi
1:53 pm54 °FMostly cloudy.No wind55%30.03 "Hg10 mi
12:53 pm53 °FOvercast.No wind56%30.03 "Hg10 mi
11:53 am52 °FOvercast.No wind59%30.03 "Hg10 mi
10:53 am50 °FOvercast.5 mph66%30.02 "Hg10 mi
9:53 am51 °FOvercast.No wind59%30.02 "Hg10 mi
8:53 am50 °FOvercast.No wind61%30.01 "Hg10 mi
7:53 am49 °FOvercast.No wind71%30.01 "Hg10 mi
6:53 am49 °FOvercast.No wind64%30.00 "Hg10 mi
5:53 am48 °FOvercast.3 mph61%30.00 "Hg10 mi
4:53 am49 °FOvercast.7 mph59%29.99 "Hg10 mi
3:53 am50 °FOvercast.7 mph54%29.99 "Hg10 mi
2:53 am50 °FOvercast.8 mph57%29.99 "Hg10 mi
1:53 am50 °FMostly cloudy.12 mph57%29.98 "Hg10 mi
Weather by CustomWeather, © 2019

See weather overview